Stampede Pass, WA

1:28 PM PDT on May 26, 2017 (GMT -0700)
Stampede Pass

Weather History for KSMP - November, 2011

Change the Weather History Date:

Sunday, November 20, 2011

  Actual Average Record
Temperature  
Mean Temperature 18 °F -  
Max Temperature 19 °F 33 °F 46 °F (2002)
Min Temperature 17 °F 26 °F 17 °F (2011)
Degree Days  
Heating Degree Days 47    
Moisture  
Dew Point 17 °F    
Average Humidity 93    
Maximum Humidity 96    
Minimum Humidity 88    
Precipitation  
Precipitation 0.00 in - - ()
Sea Level Pressure  
Sea Level Pressure 29.85 in    
Wind  
Wind Speed 5 mph (East)    
Max Wind Speed 8 mph    
Max Gust Speed 17 mph    
Visibility 5 miles    
Events      
Averages and records for this station are not official NWS values.
T = Trace of Precipitation, MM = Missing Value Source: NWS Daily Summary

Daily Weather History Graph

Daily Weather History Graph

Search for Another Location

Airport or City:

Trip Planner

Search our weather history database for the weather conditions in past years. The results will help you decide how hot, cold, wet, or windy it might be!

Date:

Astronomy

Nov. 20, 2011 Rise Set
Actual Time 7:16 AM PST 4:24 PM PST
Civil Twilight 6:42 AM PST 4:58 PM PST
Nautical Twilight 6:05 AM PST 5:36 PM PST
Astronomical Twilight 5:28 AM PST 6:12 PM PST
Moon 1:31 AM PST (11/20) 1:33 PM PST (11/20)
Length of Visible Light 10h 16m
Length of Day
9h 08m
Waning Crescent, 26% of the Moon is Illuminated
Nov 20
Waning Crescent
Nov 24
New
Dec 2
First Quarter
Dec 10
Full
Dec 17
Last Quarter

Hourly Weather History & Observations

Time (PST) Temp. Windchill Dew Point Humidity Pressure Visibility Wind Dir Wind Speed Gust Speed Precip Events Conditions
12:04 AM 17.6 °F 12.3 °F 15.8 °F 93% 29.79 in 8.0 mi Variable 3.5 mph - N/A   Partly Cloudy
12:16 AM 17.6 °F 10.7 °F 15.8 °F 93% 29.78 in 7.0 mi Variable 4.6 mph - N/A   Mostly Cloudy
12:31 AM 17.6 °F 10.7 °F 15.8 °F 93% 29.78 in 8.0 mi Variable 4.6 mph - N/A   Overcast
12:56 AM 19.0 °F 13.9 °F 17.1 °F 92% 29.91 in 8.0 mi Variable 3.5 mph - N/A   Overcast
1:56 AM 19.0 °F 12.3 °F 17.1 °F 92% 29.91 in 8.0 mi Variable 4.6 mph - N/A   Overcast
2:56 AM 18.0 °F 11.1 °F 16.0 °F 92% 29.91 in 10.0 mi Variable 4.6 mph - N/A   Overcast
3:25 AM 17.6 °F 9.3 °F 15.8 °F 93% 29.77 in 9.0 mi Variable 5.8 mph - N/A   Overcast
3:56 AM 18.0 °F 9.8 °F 15.1 °F 88% 29.90 in 10.0 mi Variable 5.8 mph - N/A   Overcast
4:56 AM 17.1 °F 10.0 °F 15.1 °F 92% 29.91 in 10.0 mi Variable 4.6 mph - N/A   Overcast
5:56 AM 17.1 °F 11.7 °F 15.1 °F 92% 29.91 in 10.0 mi Variable 3.5 mph - N/A   Overcast
6:56 AM 17.1 °F 8.7 °F 15.1 °F 92% 29.92 in 10.0 mi Variable 5.8 mph - N/A   Overcast
7:56 AM 17.1 °F 8.7 °F 15.1 °F 92% 29.93 in 9.0 mi Variable 5.8 mph - N/A   Overcast
8:56 AM 17.1 °F 8.7 °F 16.0 °F 96% 29.94 in 9.0 mi Variable 5.8 mph - N/A   Overcast
9:56 AM 18.0 °F 9.8 °F 16.0 °F 92% 29.96 in 8.0 mi Variable 5.8 mph - N/A   Overcast
10:56 AM 18.0 °F 9.8 °F 17.1 °F 96% 29.96 in 8.0 mi Variable 5.8 mph - N/A   Overcast
11:56 AM 19.0 °F 11.1 °F 17.1 °F 92% 29.94 in 8.0 mi Variable 5.8 mph - N/A   Overcast
12:56 PM 19.9 °F 13.4 °F 18.0 °F 92% 29.94 in 8.0 mi Variable 4.6 mph - N/A   Overcast
1:56 PM 19.9 °F 12.1 °F 17.1 °F 89% 29.92 in 8.0 mi Variable 5.8 mph - N/A   Overcast
2:21 PM 19.4 °F 11.5 °F 17.6 °F 93% 29.79 in 7.0 mi Variable 5.8 mph - N/A   Overcast
2:56 PM 19.0 °F 11.1 °F 18.0 °F 96% 29.93 in 6.0 mi Variable 5.8 mph - N/A   Overcast
3:56 PM 19.0 °F 12.3 °F 17.1 °F 92% 29.92 in 6.0 mi Variable 4.6 mph - N/A   Overcast
4:20 PM 19.4 °F 10.4 °F 17.6 °F 93% 29.79 in 5.0 mi Variable 6.9 mph - N/A   Overcast
4:36 PM 19.4 °F 12.8 °F 17.6 °F 93% 29.78 in 6.0 mi Variable 4.6 mph - N/A   Overcast
4:56 PM 19.0 °F 11.1 °F 17.1 °F 92% 29.91 in 6.0 mi Variable 5.8 mph - N/A   Overcast
5:56 PM 19.0 °F 12.3 °F 17.1 °F 92% 29.92 in 6.0 mi Variable 4.6 mph - N/A   Overcast
6:33 PM 19.4 °F 9.5 °F 17.6 °F 93% 29.78 in 1.8 mi ENE 8.1 mph 17.3 mph N/A   Overcast
6:56 PM 19.0 °F 10.0 °F 17.1 °F 92% 29.93 in 1.2 mi Variable 6.9 mph - N/A   Overcast
7:04 PM 19.4 °F 9.5 °F 17.6 °F 93% 29.79 in 1.5 mi East 8.1 mph - N/A   Overcast
7:24 PM 19.4 °F 11.5 °F 17.6 °F 93% 29.80 in 1.0 mi Variable 5.8 mph - N/A   Mist
7:30 PM 19.4 °F 12.8 °F 17.6 °F 93% 29.79 in 2.0 mi Variable 4.6 mph - N/A   Overcast
7:40 PM 19.4 °F 11.5 °F 17.6 °F 93% 29.79 in 1.2 mi Variable 5.8 mph - N/A   Overcast
7:56 PM 19.0 °F 10.0 °F 17.1 °F 92% 29.92 in 1.0 mi Variable 6.9 mph - N/A   Mist
8:22 PM 19.4 °F 10.4 °F 17.6 °F 93% 29.78 in 0.8 mi Variable 6.9 mph - N/A   Mist
8:29 PM 19.4 °F 10.4 °F 17.6 °F 93% 29.78 in 1.5 mi Variable 6.9 mph - N/A   Overcast
8:38 PM 19.4 °F 11.5 °F 17.6 °F 93% 29.78 in 1.2 mi Variable 5.8 mph - N/A   Overcast
8:44 PM 19.4 °F 11.5 °F 17.6 °F 93% 29.77 in 2.0 mi Variable 5.8 mph - N/A   Overcast
8:54 PM 19.4 °F 10.4 °F 17.6 °F 93% 29.77 in 1.5 mi Variable 6.9 mph - N/A   Overcast
8:56 PM 19.0 °F 10.0 °F 18.0 °F 96% 29.91 in 1.2 mi Variable 6.9 mph - N/A   Overcast
9:26 PM 19.4 °F - 17.6 °F 93% 29.77 in 0.8 mi North - - N/A   Mist
9:36 PM 19.4 °F 11.5 °F 17.6 °F 93% 29.76 in 1.2 mi Variable 5.8 mph - N/A   Overcast
9:56 PM 19.0 °F 10.0 °F 18.0 °F 96% 29.88 in 1.8 mi Variable 6.9 mph - N/A   Overcast
10:29 PM 19.4 °F 9.5 °F 17.6 °F 93% 29.75 in 0.8 mi East 8.1 mph - N/A   Mist
10:56 PM 19.0 °F 10.0 °F 18.0 °F 96% 29.87 in 0.8 mi Variable 6.9 mph - N/A   Mist
11:16 PM 19.4 °F 10.4 °F 17.6 °F 93% 29.74 in 1.5 mi Variable 6.9 mph - N/A   Overcast
11:23 PM 19.4 °F 11.5 °F 17.6 °F 93% 29.75 in 1.0 mi Variable 5.8 mph - N/A   Mist
11:33 PM 19.4 °F 10.4 °F 17.6 °F 93% 29.75 in 0.8 mi Variable 6.9 mph - N/A   Mist
11:52 PM 19.4 °F 11.5 °F 17.6 °F 93% 29.75 in 1.0 mi Variable 5.8 mph - N/A   Mist
11:56 PM 19.0 °F 10.0 °F 18.0 °F 96% 29.88 in 1.0 mi Variable 6.9 mph - N/A   Mist